• Em Portugal
  • Lista de países
  • Para 7 dias
  • Temperatura da água
  • Mapas de satélite
  • Mapa do tempo
  • Widgets de tempo
  • user-avatar
    Iniciar Sessão

    Previsão horária em Daliki

    Hoje, 20 Julho, Sexta-feira

    Tempo Temperatura Precipitação Vento Pressão Humidade
    00:00 +18°C° 0 mm 2 m/s 737 mmHg 97%
    01:00 +17°C° 0 mm 2 m/s 737 mmHg 97%
    02:00 +17°C° 0 mm 2 m/s 737 mmHg 97%
    03:00 +17°C° 0 mm 2 m/s 737 mmHg 98%
    04:00 +17°C° 0 mm 2 m/s 737 mmHg 98%
    05:00 +17°C° 0 mm 2 m/s 737 mmHg 98%
    06:00 +18°C° 0 mm 2 m/s 737 mmHg 95%
    07:00 +20°C° 0 mm 2 m/s 738 mmHg 91%
    08:00 +21°C° 0 mm 3 m/s 738 mmHg 88%
    09:00 +22°C° 0,3 mm 3 m/s 738 mmHg 83%
    10:00 +24°C° 0,3 mm 3 m/s 738 mmHg 78%
    11:00 +25°C° 0,3 mm 3 m/s 738 mmHg 73%
    12:00 +26°C° 0,8 mm 3 m/s 737 mmHg 72%
    13:00 +26°C° 0,8 mm 3 m/s 737 mmHg 72%
    14:00 +26°C° 0,8 mm 3 m/s 737 mmHg 71%
    15:00 +26°C° 0,5 mm 3 m/s 737 mmHg 73%
    16:00 +26°C° 0,5 mm 3 m/s 737 mmHg 74%
    17:00 +26°C° 0,5 mm 3 m/s 737 mmHg 75%
    18:00 +25°C° 0,5 mm 2 m/s 737 mmHg 81%
    19:00 +23°C° 0,5 mm 2 m/s 737 mmHg 86%
    20:00 +21°C° 0,5 mm 2 m/s 737 mmHg 92%
    21:00 +20°C° 0 mm 2 m/s 737 mmHg 93%
    22:00 +20°C° 0 mm 2 m/s 737 mmHg 94%
    23:00 +19°C° 0 mm 2 m/s 737 mmHg 95%

    Amanhã, 21 Julho, Sábado

    Tempo Temperatura Precipitação Vento Pressão Humidade
    00:00 +19°C° 0 mm 2 m/s 737 mmHg 96%
    01:00 +18°C° 0 mm 2 m/s 737 mmHg 96%
    02:00 +18°C° 0 mm 2 m/s 737 mmHg 97%
    03:00 +18°C° 0 mm 2 m/s 737 mmHg 97%
    04:00 +18°C° 0 mm 2 m/s 737 mmHg 97%
    05:00 +18°C° 0 mm 2 m/s 737 mmHg 98%
    06:00 +19°C° 0,1 mm 2 m/s 738 mmHg 95%
    07:00 +20°C° 0,1 mm 2 m/s 738 mmHg 93%
    08:00 +21°C° 0,1 mm 2 m/s 738 mmHg 91%
    09:00 +23°C° 0,1 mm 2 m/s 738 mmHg 88%
    10:00 +22°C° 0,1 mm 3 m/s 738 mmHg 85%
    11:00 +24°C° 0,1 mm 3 m/s 738 mmHg 83%
    12:00 +24°C° 0,3 mm 3 m/s 738 mmHg 81%
    13:00 +25°C° 0,3 mm 3 m/s 738 mmHg 79%
    14:00 +25°C° 0,3 mm 3 m/s 738 mmHg 77%
    15:00 +25°C° 0,7 mm 3 m/s 738 mmHg 78%
    16:00 +25°C° 0,7 mm 3 m/s 738 mmHg 79%
    17:00 +25°C° 0,7 mm 3 m/s 738 mmHg 80%
    18:00 +24°C° 1,3 mm 3 m/s 738 mmHg 84%
    19:00 +23°C° 1,3 mm 2 m/s 738 mmHg 88%
    20:00 +21°C° 1,3 mm 2 m/s 738 mmHg 92%
    21:00 +20°C° 0,3 mm 2 m/s 738 mmHg 94%
    22:00 +20°C° 0,3 mm 2 m/s 738 mmHg 95%
    23:00 +20°C° 0,3 mm 2 m/s 738 mmHg 96%

    Depois de amanhã, 22 Julho, Domingo

    Tempo Temperatura Precipitação Vento Pressão Humidade
    00:00 +19°C° 0,8 mm 2 m/s 738 mmHg 97%
    01:00 +19°C° 0,8 mm 2 m/s 737 mmHg 97%
    02:00 +19°C° 0,8 mm 2 m/s 737 mmHg 97%
    03:00 +19°C° 1,1 mm 2 m/s 737 mmHg 98%
    04:00 +19°C° 1,1 mm 3 m/s 737 mmHg 98%
    05:00 +19°C° 1,1 mm 3 m/s 737 mmHg 98%
    06:00 +19°C° 1,1 mm 3 m/s 737 mmHg 97%
    07:00 +19°C° 1,1 mm 3 m/s 737 mmHg 97%
    08:00 +19°C° 1,1 mm 4 m/s 737 mmHg 96%
    09:00 +19°C° 0,7 mm 4 m/s 737 mmHg 95%
    10:00 +20°C° 0,7 mm 4 m/s 737 mmHg 94%
    11:00 +20°C° 0,7 mm 4 m/s 737 mmHg 93%
    12:00 +20°C° 0,2 mm 5 m/s 737 mmHg 92%
    13:00 +21°C° 0,2 mm 5 m/s 737 mmHg 91%
    14:00 +21°C° 0,2 mm 5 m/s 737 mmHg 90%
    15:00 +21°C° 0,1 mm 5 m/s 737 mmHg 89%
    16:00 +21°C° 0,1 mm 5 m/s 737 mmHg 89%
    17:00 +21°C° 0,1 mm 5 m/s 737 mmHg 88%
    18:00 +20°C° 0 mm 4 m/s 737 mmHg 89%
    19:00 +19°C° 0 mm 4 m/s 737 mmHg 90%
    20:00 +19°C° 0 mm 3 m/s 737 mmHg 91%
    21:00 +18°C° 0,1 mm 3 m/s 737 mmHg 92%
    22:00 +18°C° 0,1 mm 3 m/s 737 mmHg 93%
    23:00 +18°C° 0,1 mm 3 m/s 737 mmHg 94%

    23 Julho, Segunda-feira

    Tempo Temperatura Precipitação Vento Pressão Humidade
    00:00 +18°C° 0,2 mm 3 m/s 737 mmHg 95%
    01:00 +18°C° 0,2 mm 4 m/s 737 mmHg 95%
    02:00 +18°C° 0,2 mm 4 m/s 737 mmHg 96%
    03:00 +18°C° 0,6 mm 4 m/s 737 mmHg 96%
    04:00 +18°C° 0,6 mm 4 m/s 737 mmHg 96%
    05:00 +18°C° 0,6 mm 4 m/s 737 mmHg 96%
    06:00 +18°C° 0,5 mm 4 m/s 737 mmHg 95%
    07:00 +19°C° 0,5 mm 4 m/s 737 mmHg 95%
    08:00 +19°C° 0,5 mm 5 m/s 737 mmHg 94%
    09:00 +19°C° 0,4 mm 5 m/s 738 mmHg 92%
    10:00 +19°C° 0,4 mm 5 m/s 738 mmHg 91%
    11:00 +19°C° 0,4 mm 5 m/s 738 mmHg 89%
    12:00 +20°C° 0,1 mm 5 m/s 738 mmHg 86%
    13:00 +20°C° 0,1 mm 5 m/s 738 mmHg 83%
    14:00 +21°C° 0,1 mm 6 m/s 738 mmHg 79%
    15:00 +21°C° 0 mm 5 m/s 738 mmHg 78%
    16:00 +21°C° 0 mm 5 m/s 738 mmHg 77%
    17:00 +21°C° 0 mm 5 m/s 738 mmHg 76%
    18:00 +20°C° 0 mm 4 m/s 739 mmHg 80%
    19:00 +19°C° 0 mm 3 m/s 739 mmHg 84%
    20:00 +18°C° 0 mm 2 m/s 739 mmHg 88%
    21:00 +18°C° 0 mm 2 m/s 739 mmHg 90%
    22:00 +17°C° 0 mm 2 m/s 739 mmHg 92%
    23:00 +16°C° 0 mm 2 m/s 739 mmHg 94%

    24 Julho, Terça-feira

    Tempo Temperatura Precipitação Vento Pressão Humidade
    00:00 +16°C° 0 mm 3 m/s 739 mmHg 94%
    01:00 +16°C° 0 mm 3 m/s 739 mmHg 94%
    02:00 +16°C° 0 mm 3 m/s 739 mmHg 95%
    03:00 +16°C° 0 mm 3 m/s 739 mmHg 94%
    04:00 +16°C° 0 mm 3 m/s 739 mmHg 94%
    05:00 +16°C° 0 mm 3 m/s 739 mmHg 94%
    06:00 +17°C° 0 mm 3 m/s 739 mmHg 91%
    07:00 +18°C° 0 mm 3 m/s 740 mmHg 89%
    08:00 +19°C° 0 mm 3 m/s 740 mmHg 87%
    09:00 +20°C° 0,1 mm 3 m/s 740 mmHg 84%
    10:00 +21°C° 0,1 mm 3 m/s 740 mmHg 82%
    11:00 +22°C° 0,1 mm 3 m/s 740 mmHg 80%
    12:00 +24°C° 0,1 mm 3 m/s 740 mmHg 79%
    13:00 +24°C° 0,1 mm 3 m/s 740 mmHg 77%
    14:00 +25°C° 0,1 mm 3 m/s 740 mmHg 76%
    15:00 +25°C° 0,2 mm 2 m/s 740 mmHg 77%
    16:00 +25°C° 0,2 mm 2 m/s 740 mmHg 78%
    17:00 +24°C° 0,2 mm 2 m/s 740 mmHg 79%
    18:00 +24°C° 0,1 mm 2 m/s 740 mmHg 83%
    19:00 +23°C° 0,1 mm 2 m/s 741 mmHg 87%
    20:00 +21°C° 0,1 mm 2 m/s 741 mmHg 90%
    21:00 +20°C° 0 mm 2 m/s 741 mmHg 92%
    22:00 +20°C° 0 mm 1 m/s 741 mmHg 93%
    23:00 +19°C° 0 mm 1 m/s 741 mmHg 95%

    25 Julho, Quarta-feira

    Tempo Temperatura Precipitação Vento Pressão Humidade
    00:00 +19°C° 0 mm 1 m/s 741 mmHg 95%
    01:00 +18°C° 0 mm 2 m/s 741 mmHg 96%
    02:00 +18°C° 0 mm 2 m/s 741 mmHg 96%
    03:00 +17°C° 0 mm 2 m/s 741 mmHg 96%
    04:00 +17°C° 0 mm 2 m/s 741 mmHg 97%
    05:00 +18°C° 0 mm 1 m/s 741 mmHg 97%
    06:00 +20°C° 0 mm 1 m/s 742 mmHg 93%
    07:00 +20°C° 0 mm 2 m/s 742 mmHg 89%
    08:00 +23°C° 0 mm 2 m/s 742 mmHg 85%
    09:00 +23°C° 0,2 mm 2 m/s 742 mmHg 82%
    10:00 +24°C° 0,2 mm 2 m/s 742 mmHg 79%
    11:00 +25°C° 0,2 mm 2 m/s 742 mmHg 76%
    12:00 +26°C° 0,7 mm 2 m/s 742 mmHg 75%
    13:00 +26°C° 0,7 mm 2 m/s 742 mmHg 73%
    14:00 +27°C° 0,7 mm 2 m/s 742 mmHg 72%
    15:00 +27°C° 0,8 mm 2 m/s 742 mmHg 74%
    16:00 +26°C° 0,8 mm 2 m/s 742 mmHg 76%
    17:00 +26°C° 0,8 mm 2 m/s 742 mmHg 79%
    18:00 +25°C° 0,9 mm 2 m/s 742 mmHg 83%
    19:00 +24°C° 0,9 mm 2 m/s 742 mmHg 88%
    20:00 +21°C° 0,9 mm 2 m/s 742 mmHg 92%
    21:00 +21°C° 0,4 mm 2 m/s 742 mmHg 93%
    22:00 +20°C° 0,4 mm 2 m/s 742 mmHg 95%
    23:00 +19°C° 0,4 mm 2 m/s 742 mmHg 96%
    Mostrar mais